SCP
1 1 1 1 0 0 0 0 0 0 0 0 0 0 0 0 0 0 0 0 0 0 0 0 0 0 0 0 0 0 0 0 0 0 0 0 0 0 0 0 0 0 0
1 1 1 1 0 0 0 0 0 0 0 0 0 0 0 0 0 0 0 0 0 0 0 0 0 0 0 0 0 0 0 0 0 0 0 0 0 0 0 0 0 0 0
2 1 1 1 0 0 0 0 0 0 0 0 0 0 0 0 0 0 0 0 0 0 0 0 0 0 0 0 0 0 0 0 0 0 0 0 0 0 0 0 0 0 0
2 1 1 1 1 0 0 0 0 0 0 0 0 0 0 0 0 0 0 0 0 0 0 0 0 0 0 0 0 0 0 0 0 0 0 0 0 0 0 0 0 0 0
2 2 1 1 1 0 0 0 0 0 0 0 0 0 0 0 0 0 0 0 0 0 0 0 0 0 0 0 0 0 0 0 0 0 0 0 0 0 0 0 0 0 0
2 2 1 1 1 0 0 0 0 0 0 0 0 0 0 0 0 0 0 0 0 0 0 0 0 0 0 0 0 0 0 1 1 1 0 0 0 0 0 0 0 0 0
1 1 1 1 1 0 0 0 0 0 0 0 0 0 0 0 0 0 0 0 0 0 0 0 0 0 0 0 0 0 1 1 1 1 0 0 0 0 0 0 0 0 0
1 1 1 1 1 0 0 0 0 0 0 0 0 0 0 0 0 0 0 0 0 0 0 0 0 0 0 0 0 0 0 1 1 1 0 0 0 0 0 0 0 0 0
1 1 1 1 0 0 0 0 0 0 0 0 0 0 0 0 0 0 0 0 0 0 0 0 0 0 0 0 0 0 0 0 1 0 0 0 0 0 0 0 0 0 0
2 1 1 1 0 0 0 0 0 0 0 0 0 0 0 0 0 0 0 0 0 0 0 0 0 0 0 0 0 0 0 0 0 0 0 0 0 0 0 0 0 0 0
2 1 1 1 0 0 0 0 0 0 0 0 0 0 0 0 0 0 0 0 0 0 0 0 0 0 0 0 0 0 0 0 0 0 0 0 0 0 0 0 0 1 0
1 1 1 1 1 1 1 0 0 0 0 0 0 0 0 0 0 0 0 0 0 0 0 0 0 0 0 0 0 0 0 0 0 0 0 0 0 0 0 1 1 1 1
1 1 1 1 0 1 1 0 0 0 0 0 0 0 0 0 0 0 0 0 0 0 0 0 0 0 0 0 0 0 0 0 0 0 0 0 0 0 1 1 1 1 1
1 1 1 0 0 1 1 0 0 0 0 0 0 0 1 0 0 0 0 0 0 0 0 0 0 0 0 0 0 0 0 0 0 0 0 0 0 0 0 0 1 1 1
1 1 0 0 0 0 0 0 0 0 0 0 0 1 1 1 0 0 0 0 0 0 0 0 0 0 0 0 0 0 0 0 0 0 0 0 0 0 0 0 0 0 0
0 0 0 0 0 0 0 0 0 0 0 0 0 1 1 1 0 0 0 0 0 0 0 0 0 0 0 0 0 0 0 0 0 0 0 0 0 0 0 0 0 0 0
0 0 0 0 0 0 0 0 0 0 0 0 0 1 1 1 0 0 0 0 0 0 0 0 0 0 0 0 0 0 0 0 0 0 0 0 0 0 0 0 0 0 0
0 0 0 0 0 0 0 0 0 0 0 0 1 1 1 1 1 0 0 0 0 0 0 0 0 0 0 0 0 0 0 0 0 0 0 0 0 0 0 0 0 0 0
0 0 0 0 0 0 0 0 0 0 0 0 1 1 1 1 1 1 0 0 0 0 0 0 0 0 0 0 0 0 0 0 0 0 0 0 0 0 0 0 0 0 0
0 0 0 0 0 0 0 0 0 0 0 0 1 1 1 1 1 1 0 0 0 0 0 0 0 0 0 0 0 0 0 0 0 0 0 0 0 0 0 0 0 0 0
0 0 0 0 0 0 0 0 0 0 0 0 0 0 0 0 0 0 0 0 0 0 0 0 0 0 0 0 0 0 0 0 0 0 0 0 0 0 0 0 0 0 0
0 0 0 0 0 0 0 0 0 0 0 0 0 0 0 0 0 0 0 0 0 0 0 0 0 0 0 0 0 0 0 0 0 0 0 0 0 0 0 0 0 0 0
0 0 0 0 0 0 0 0 0 0 0 0 0 0 0 0 0 0 0 0 0 0 0 0 0 0 0 0 0 0 0 0 0 0 0 0 0 0 0 0 0 0 0
0 0 0 0 0 0 0 0 0 0 0 0 0 0 0 0 0 0 0 0 0 0 0 0 0 0 0 0 0 0 0 0 0 0 0 0 0 0 0 0 0 0 0
0 0 0 0 0 0 0 0 0 0 0 0 0 0 0 0 0 0 0 0 0 0 0 0 0 0 0 0 0 0 0 0 0 0 0 0 0 0 0 0 0 0 0
0 0 0 0 0 0 0 0 0 0 0 0 0 0 0 0 0 0 0 0 0 0 0 0 0 0 0 0 0 0 0 0 0 0 0 0 0 0 0 0 0 0 0
Wind_Speed
8 7 6 6 6 5 5 5 4 5 4 4 3 4 3 3 3 3 2 5 5 5 5 5 4 3 3 2 1 1 1 1 1 1 2 2 1 1 1 1 3 3 4
8 8 8 7 7 6 6 6 5 5 4 3 3 3 3 3 3 3 3 3 5 6 5 5 5 4 3 2 2 1 1 1 1 1 1 2 1 1 1 1 2 4 4
8 8 8 8 7 7 7 5 5 3 3 3 3 3 3 3 3 4 3 2 3 5 6 6 5 4 3 3 2 2 2 1 1 1 1 1 1 0 1 2 3 4 5
9 8 8 8 8 7 6 6 5 4 4 3 3 2 2 2 3 3 3 3 2 2 4 6 5 5 4 3 3 3 2 2 2 1 1 1 1 1 2 2 3 4 4
11 9 8 7 8 7 6 7 5 4 4 4 3 2 2 2 3 3 3 4 4 3 3 3 5 4 4 3 4 4 3 3 2 1 1 1 1 2 3 3 3 3 4
11 10 7 8 9 8 7 7 6 4 4 4 3 1 1 2 2 3 4 3 3 4 4 3 2 2 3 3 4 4 4 3 3 2 2 2 2 3 3 4 3 4 4
11 11 9 9 9 9 9 9 6 6 4 3 3 0 1 1 2 3 3 3 3 4 4 4 3 2 2 4 4 4 4 4 3 2 2 3 3 3 4 4 4 4 4
11 11 11 10 11 9 10 10 7 5 4 5 4 3 1 2 2 2 2 3 3 3 3 4 3 3 2 2 3 4 4 4 3 3 3 3 2 3 4 4 4 4 4
11 11 12 11 11 10 10 11 10 9 6 5 4 5 4 4 2 1 2 2 3 3 3 3 4 4 4 3 2 3 3 3 3 3 3 3 3 3 4 4 4 4 4
11 11 11 11 11 10 9 10 10 7 7 6 4 3 3 4 3 2 1 2 3 4 4 4 4 4 4 3 4 5 4 4 3 3 2 3 3 4 4 4 4 4 4
10 11 11 11 11 10 10 10 9 8 7 7 6 4 3 1 2 3 3 2 2 3 4 4 4 4 4 4 3 5 6 5 5 4 3 3 3 3 3 4 3 3 3
7 10 11 11 10 9 9 9 9 10 9 8 6 5 4 4 4 4 4 3 3 3 3 3 4 4 4 4 5 7 7 7 6 5 4 3 1 1 3 2 2 2 3
5 8 9 9 9 9 9 8 9 9 9 8 8 6 5 4 3 3 3 3 2 2 2 3 4 4 4 4 4 8 7 7 6 5 5 3 1 0 1 1 1 1 3
5 7 9 8 8 9 9 8 7 8 8 8 8 7 5 4 4 4 4 3 2 2 3 5 3 5 5 5 6 8 5 8 7 6 5 3 3 2 1 1 1 2 3
3 5 6 7 7 7 8 8 7 8 7 7 7 7 5 4 4 4 4 4 5 5 6 6 5 5 5 5 7 6 5 7 8 7 5 5 4 3 2 1 1 1 2
2 3 4 5 6 6 6 6 5 5 6 6 5 6 6 4 4 4 5 4 4 5 5 4 5 4 5 4 8 5 5 8 8 8 7 6 6 5 3 2 1 1 2
2 1 2 3 4 5 4 5 5 5 6 6 5 6 6 5 5 4 4 4 4 4 6 3 2 2 5 6 5 4 4 4 4 8 9 8 7 6 5 3 2 1 1
3 2 1 1 2 3 4 5 5 5 6 6 6 6 6 5 6 5 5 6 5 5 5 4 3 3 5 6 5 5 4 4 4 8 9 8 7 7 6 4 3 2 1
5 5 3 1 0 1 3 3 4 5 6 6 6 6 6 6 7 5 5 6 5 4 3 4 4 3 2 3 4 3 3 3 3 5 8 9 8 7 7 6 4 3 2
6 6 5 3 2 1 1 1 2 3 4 5 5 6 6 7 7 7 6 6 5 5 4 4 3 3 3 3 4 4 4 4 4 3 6 6 7 7 7 6 5 4 3
8 6 6 6 4 3 2 1 2 3 4 4 4 4 5 7 8 7 6 6 6 6 5 5 4 3 4 4 5 4 5 3 3 3 3 3 3 2 4 5 5 4 4
8 8 7 6 6 5 7 6 3 2 3 4 4 4 4 6 7 9 10 9 9 8 7 6 5 7 7 6 5 5 5 4 4 4 4 3 3 3 3 3 5 6 5
8 8 7 6 6 7 11 10 7 2 2 3 4 4 3 4 6 5 7 8 9 12 11 8 8 8 7 7 8 7 6 5 5 5 5 4 3 3 3 4 7 7 6
6 6 7 6 6 7 12 12 10 4 2 3 3 4 5 5 5 5 4 5 5 6 7 7 7 7 6 7 8 7 6 4 2 2 4 4 3 3 2 2 7 8 7
6 5 5 6 6 7 12 12 10 4 3 4 3 4 4 5 8 7 5 5 5 5 6 7 7 7 9 11 10 6 6 5 3 3 3 3 3 2 2 1 3 6 7
5 5 6 5 6 6 11 12 11 3 4 4 4 4 6 8 9 8 5 5 6 5 3 3 4 5 6 9 13 9 8 6 4 4 5 5 4 4 2 1 1 1 2
Wind_Direction
171 170 170 169 166 162 165 162 160 162 163 163 166 168 179 192 198 204 227 232 224 217 213 209 207 208 214 205 194 178 201 217 239 225 220 221 233 240 279 333 338 333 329
174 174 174 174 174 172 172 169 169 168 171 169 178 183 189 195 206 207 214 229 225 221 220 219 217 213 206 208 200 185 171 195 206 219 214 211 211 239 259 312 321 326 320
179 178 178 180 180 174 169 163 162 157 168 177 190 193 193 202 205 210 210 211 217 224 220 220 218 215 215 224 211 187 172 150 161 164 153 186 199 248 299 317 329 323 323
181 180 183 185 177 173 172 171 170 170 181 183 191 201 200 204 211 211 206 204 200 206 216 217 215 213 215 225 209 202 189 164 149 147 148 160 209 242 283 294 311 319 319
183 184 188 185 176 177 178 181 176 172 181 185 192 201 205 208 210 204 206 205 198 194 194 206 203 202 206 220 210 208 194 178 172 175 189 217 250 256 267 278 290 304 314
187 185 188 184 181 182 183 182 175 173 175 171 170 181 215 223 212 208 209 202 195 193 188 184 182 194 200 203 200 201 199 192 186 191 211 239 263 276 279 287 292 295 305
193 189 190 185 186 191 189 183 172 173 172 147 127 120 313 248 225 222 207 199 197 192 182 182 180 178 191 193 193 195 199 205 211 219 237 250 262 282 286 288 296 301 306
196 195 192 190 190 192 189 183 172 168 171 167 150 140 222 294 259 224 205 205 202 187 190 188 181 181 180 177 196 194 204 207 219 235 241 245 259 281 290 287 286 298 309
199 198 198 192 192 192 194 190 184 179 177 184 177 163 170 211 233 249 218 209 198 195 199 188 188 187 183 182 187 198 190 196 225 241 251 255 269 287 293 290 291 295 305
199 199 199 196 193 194 196 195 190 185 175 183 195 205 184 161 165 212 258 223 206 207 206 199 193 191 183 184 190 186 183 191 211 227 248 269 275 288 296 296 304 312 317
200 198 197 197 196 196 197 195 191 190 188 186 183 176 176 177 172 175 217 222 220 219 209 202 198 194 189 186 188 191 188 191 199 213 238 259 272 291 306 305 304 316 331
200 198 196 198 198 197 196 196 196 196 198 196 192 184 177 180 191 188 204 214 219 217 208 201 200 200 196 191 195 190 188 190 198 208 225 232 245 317 323 317 317 337 346
202 197 195 197 196 195 193 193 196 200 199 200 201 203 201 203 179 175 184 204 220 220 211 220 211 199 198 191 196 191 192 188 193 203 216 213 207 303 2 351 344 354 356
201 192 193 193 194 193 190 192 198 201 199 204 208 204 205 205 191 189 182 178 214 233 226 228 207 205 199 190 195 187 192 191 192 195 198 189 161 147 125 75 24 8 5
189 186 185 186 190 189 189 189 199 199 197 203 206 206 208 206 203 202 197 191 195 226 233 216 208 204 198 191 188 183 185 196 193 186 182 165 158 156 157 157 114 40 24
128 150 168 180 180 180 185 186 190 195 196 203 203 207 211 208 210 205 204 208 209 218 235 206 205 186 184 191 191 185 190 193 194 185 180 177 177 176 175 169 144 79 55
80 123 152 178 180 179 183 191 199 196 204 210 208 212 218 211 212 209 205 208 215 212 234 225 190 176 178 186 182 183 184 186 199 195 191 188 185 181 174 167 161 143 90
47 57 86 152 178 181 190 197 208 209 210 216 216 216 223 216 219 216 211 216 218 213 214 220 197 192 197 190 182 187 189 190 195 202 197 191 189 187 182 180 183 174 156
44 42 46 50 90 188 195 204 212 217 220 222 218 218 222 216 225 224 221 222 220 215 211 210 205 192 188 171 169 186 189 193 195 204 203 196 194 195 191 192 197 193 186
38 34 30 29 27 24 198 210 214 225 231 233 228 225 224 222 228 225 224 223 217 211 207 208 204 191 187 171 168 184 198 200 199 195 203 198 198 202 199 196 197 198 192
31 29 29 24 19 14 353 304 232 231 233 238 238 235 235 239 240 234 229 221 213 215 209 213 210 196 194 182 196 186 199 187 205 191 186 194 186 190 199 200 196 196 191
26 28 28 23 20 11 355 352 329 253 246 244 251 254 254 246 249 251 248 237 224 217 214 214 217 216 211 202 188 184 178 176 211 193 179 197 174 192 197 197 203 200 200
23 23 19 18 13 2 1 359 346 330 276 255 251 254 265 262 259 248 251 247 238 234 224 217 221 222 211 198 185 189 191 190 197 172 166 189 179 201 198 208 208 206 206
16 14 9 6 3 358 359 356 353 348 311 288 271 256 252 254 249 249 244 244 246 243 236 228 226 224 213 195 194 192 184 165 108 143 161 177 178 196 186 204 213 209 206
8 5 -0 358 356 349 354 355 354 341 325 312 297 278 265 252 258 261 244 240 253 258 252 242 239 232 217 202 184 160 161 165 184 191 181 167 165 166 170 200 214 211 202
358 355 354 352 348 341 347 350 349 339 328 322 318 307 294 288 278 268 249 235 246 252 240 239 238 231 218 206 195 186 179 178 165 185 182 168 160 153 172 196 186 182 191